Location: Newark
(39.9500°N, 8.6833°E)
Time: 14:53:50
(UTC+00:00)

NO-84 - Pass Details

Date: 24 February 2020
Orbit: 328 x 491 km, 55.0° (Epoch: 01 April)

Event Time Altitude Azimuth Distance (km) Brightness Sun altitude
Exits shadow 05:02:02 - 326° (NNW) 1,793 ? -13.2°
Reaches altitude 10° 05:02:24 10° 328° (NNW) 1,660 ? -13.1°
Maximum altitude 05:05:50 33° 35° (NE) 805 ? -12.4°
Drops below altitude 10° 05:09:06 10° 101° (E) 1,584 ? -11.8°
Sets 05:11:18 0° 111° (ESE) 2,422 ? -11.4°
